Regional Weather Roundup
Issued by NWS

Home | Current Version | Previous Version | Text Only | Print | Product List | Glossary On
Versions: 1 2 3 4 5 6 7 8 9 10 11 12 13 14 15 16 17 18 19 20 21 22 23 24 25 26 27 28 29 30 31 32 33 34 35 36 37 38 39 40 41 42 43 44 45 46 47 48 49 50
000
ASUS44 KLIX 111712
RWRLA
LOUISIANA WEATHER ROUNDUP
NATIONAL WEATHER SERVICE NEW ORLEANS LA
1100 AM CST MON DEC 11 2017

NOTE: "FAIR" INDICATES FEW OR NO CLOUDS BELOW 12,000 FEET WITH NO
      SIGNIFICANT WEATHER AND/OR OBSTRUCTIONS TO VISIBILITY.
      SKY/WX - SKY CONDITION AND SIGNIFICANT WEATHER.
      TMP - AIR TEMPERATURE.    DP   - DEWPOINT TEMPERATURE.
      RH  - RELATIVE HUMIDITY.  PRES - PRESSURE.
      HX  - HEAT INDEX.         WCI  - WIND CHILL INDEX.

*  THESE STATIONS ARE NOT NWS OR FAA STATIONS AND ARE NOT UNDER
   NWS QUALITY CONTROL.

LAZ040-048-061>063-065-066-069-111800-
SOUTHEAST LOUISIANA

CITY           SKY/WX    TMP DP  RH WIND       PRES   REMARKS
N.O. INTL ARPT PTSUNNY   63  40  42 W9        30.29F
N.O. LAKEFRONT SUNNY     60  43  53 SW8       30.29F
N.O. DOWNTOWN* FAIR      58  41  53 S5        30.30F
RESERVE*       FAIR      63  38  40 SW8       30.29F
SLIDELL        SUNNY     60  38  43 VRB7      30.28F
BATON ROUGE    SUNNY     62  38  40 W9        30.27F
BOOTHVILLE     SUNNY     60  38  43 W10       30.31F
BELLE CHASSE   PTSUNNY   61  41  47 SW6       30.29F
BOGALUSA*      NOT AVBL
GALLIANO*      SUNNY     60  40  47 SW8       30.31F
NEW ROADS*     FAIR      58  39  50 NW5       30.27F
GONZALES*      FAIR      62  38  41 W9        30.28F
HAMMOND*       SUNNY     61  37  41 S8        30.27F
HOUMA*         SUNNY     63  41  45 W8        30.30F
PORT FOURCHON* NOT AVBL

$$

LAZ041-044-053-054-111800-
SOUTHWEST LOUISIANA

CITY           SKY/WX    TMP DP  RH WIND       PRES   REMARKS
LAKE CHARLES   CLOUDY    61  44  53 W6        30.29F
LAFAYETTE      SUNNY     61  39  44 W9        30.29F
PATTERSON      SUNNY     62  44  51 SW15      30.30F
SALT POINT       N/A     58  50  75 CALM      30.30F
NEW IBERIA     SUNNY     62  38  40 W10       30.30F
CHENAULT AIRPK NOT AVBL

$$

LAZ027-028-111800-
CENTRAL LOUISIANA

CITY           SKY/WX    TMP DP  RH WIND       PRES   REMARKS
FORT POLK      SUNNY     59  36  42 W3        30.24F
ALEXANDRIA INT SUNNY     59  39  47 W5        30.24F
ALEXANDRIA     SUNNY     62  38  40 SW6       30.24F

$$

LAZ001-002-111800-
NORTHWEST LOUISIANA

CITY           SKY/WX    TMP DP  RH WIND       PRES   REMARKS
SHREVEPORT     MOSUNNY   66  32  28 VRB3      30.21F
BARKSDALE AFB  SUNNY     62  32  32 SE3       30.21F
DTN SHREVEPORT SUNNY     64  30  27 SW3       30.22F

$$

LAZ014-016-111800-
NORTHEAST LOUISIANA

CITY           SKY/WX    TMP DP  RH WIND       PRES   REMARKS
MONROE         SUNNY     59  35  40 W6        30.23F
TALLULAH       SUNNY     56  36  47 CALM      30.23F

$$




USA.gov is the U.S. government's official web portal to all federal, state and local government web resources and services.